Regional Weather Roundup
Issued by NWS Newport/Morehead, NC

Current Version | Previous Version | Text Only | Print | Product List | Glossary On
Versions: 1 2 3 4 5 6 7 8 9 10 11 12 13 14 15 16 17 18 19 20 21 22 23 24 25 26 27 28 29 30 31 32 33 34 35 36 37 38 39 40 41 42 43 44 45 46 47 48 49 50
000 ASUS42 KMHX 161213 RWRMHX WEATHER ROUNDUP FOR EASTERN NORTH CAROLINA NATIONAL WEATHER SERVICE NEWPORT/MOREHEAD CITY NC 700 AM EST SAT DEC 16 2017 NOTE: "FAIR" INDICATES FEW OR NO CLOUDS BELOW 12,000 FEET WITH NO SIGNIFICANT WEATHER AND/OR OBSTRUCTIONS TO VISIBILITY NCZ015>017-031-032-045>047-102-103-161300- NORTH COAST CITY SKY/WX TMP DP RH WIND PRES REMARKS EDENTON PTCLDY 32 26 80 CALM 30.23R ELIZABETH CITY CLEAR 27 23 85 W3 30.22R KITTY HAWK SUNNY 33 26 73 CALM 30.20R MANTEO CLEAR 35 26 69 N7 30.22R $$ NCZ045>047-081-094-103-104-161300- CENTRAL COAST CITY SKY/WX TMP DP RH WIND PRES REMARKS FRISCO CLEAR 38 28 67 VRB6 30.21R $$ NCZ095-097-098-100-101-161300- SOUTHERN COAST CITY SKY/WX TMP DP RH WIND PRES REMARKS BEAUFORT CLEAR 33 24 69 N8 30.25R CEDAR ISLAND NOT AVBL JACKSONVILLE CLOUDY 30 26 85 CALM 30.25R PINEY ISLAND N/A N/A N/A N/A NW12 30.23R WILMINGTON CLOUDY 30 28 92 CALM 30.27R $$ NCZ011>013-027>030-043-044-078>080-089-090>093-098-161300- COASTAL PLAIN CITY SKY/WX TMP DP RH WIND PRES REMARKS AHOSKIE CLEAR 24 22 91 CALM 30.23R CLINTON CLOUDY 27 27 99 CALM 30.25R ELIZABETHTOWN NOT AVBL GOLDSBORO CLEAR 28 22 80 CALM 30.22R GREENVILLE CLEAR 30 23 74 CALM 30.24R HAVELOCK CLOUDY 32 50 100 W6 30.25R KENANSVILLE CLOUDY 25 23 93 CALM 30.24R FOG KINSTON CLEAR 27 23 86 CALM 30.24R NEW BERN CLOUDY 27 26 96 SW3 30.25R RICHLANDS CLOUDY 25 23 92 CALM 30.25R ROCKY MOUNT CLEAR 29 22 75 CALM 30.23R WASHINGTON CLEAR 31 22 69 CALM 30.24R WHITEVILLE PTCLDY 31 28 91 CALM 30.26R $$ AMZ130-135-150-152-154-156-158-170-250-252-270-ANZ085-086-088-633-658-670-161300- MARINE OBSERVATIONS STATION/POSITION TIME TEMP WIND PRES WAVE SWELL AIR SEA DIR/SP/G HT/PER HT/PER (UTC) (F) (DEG/KT/KT) (MB) (FT/S) (FT/S) CHESAPEAKE LIGHT NOT AVBL 64 E VA BEACH 1150 43 57 330/ 12/ 17 1022.3 7/ 7 5/ 7 DUCK 1148 34 51 320/ 8/ 10 1022.4 2 E DUCK 1200 54 N/A 3/ 6 OREGON INLET 1142 36 47 310/ 7/ 9 1022.8 13E OREGON INLT 1148 60 N/A 4/ 6 3/ 6 HATTERAS CG 1148 39 53 330/ 15/ 18 1022.7 DIAMOND BUOY 1150 43 72 330/ 14/ 19 1022.7 5/ 7 2/14 CAPE LOOKOUT 1200 340/ 12/ 14 1024.1 BEAUFORT LAB 1148 37 50 340/ 9/ 11 1023.7 30 SE NEW RVR IN 1108 44 64 360/ 14/ 19 1022.8 30 SE NEW RVR IN 1200 64 N/A 4/ 5 27 SE WRIGHTSVLE 1108 45 63 10/ 16/ 21 1023.0 5 SE WRIGHTSVLE 1108 41 56 10/ 14/ 19 1022.7 225 S CAPE HAT 1050 67 74 320/ 16/ 19 1019.1 9/ 8 7/ 8 41 SE CHARLESTON 1150 52 72 360/ 8/ 14 1023.3 4/ 5 3/ 5 $$

USA.gov is the U.S. government's official web portal to all federal, state and local government web resources and services.